FW0824 Weather Reports


time (UTC)temp
F
wind
direction
speed
knots
gust
knots
rain 1hr
in
rain 24hr
in
rain mn
in
humidity
%
barometer
mb
20230207110229 35 299 0.9 7.0 0.00 0.00 0.06 87 1009.3
20230207105228 35 235 2.6 7.8 0.00 0.00 0.06 87 1009.1
20230207104729 35 355 2.6 7.8 0.00 0.00 0.06 87 1009.0
20230207104229 34 313 1.7 7.8 0.00 0.00 0.06 87 1008.8
20230207103729 34 274 0.0 6.1 0.00 0.00 0.06 87 1008.8
20230207101729 34 268 0.0 3.5 0.00 0.00 0.06 88 1008.6
20230207101229 34 290 0.9 7.0 0.00 0.00 0.06 88 1008.6
20230207100730 34 326 2.6 10.4 0.00 0.00 0.06 88 1008.6
20230207100230 34 300 3.5 10.4 0.00 0.00 0.06 88 1008.5
20230207095729 34 333 2.6 7.8 0.00 0.00 0.06 88 1008.4
20230207095229 34 302 2.6 8.7 0.00 0.00 0.06 89 1008.4
20230207094730 34 304 3.5 8.7 0.00 0.00 0.06 89 1008.1
20230207094230 34 337 4.3 13.0 0.00 0.00 0.06 89 1008.0
20230207093730 34 327 4.3 13.0 0.00 0.00 0.06 89 1007.7
20230207093229 34 303 4.3 8.7 0.00 0.00 0.06 90 1007.7
20230207092729 34 321 3.5 8.7 0.00 0.00 0.06 90 1007.4
20230207092228 34 333 2.6 9.6 0.00 0.00 0.06 90 1007.4
20230207091729 33 312 0.9 9.6 0.00 0.00 0.06 90 1007.3
20230207091228 33 296 1.7 9.6 0.00 0.00 0.06 90 1007.1
20230207090729 33 259 2.6 9.6 0.00 0.00 0.06 90 1007.1
20230207090228 33 11 2.6 7.8 0.00 0.00 0.06 91 1007.0
20230207085730 33 299 2.6 10.4 0.00 0.00 0.06 91 1007.0
20230207085229 33 305 3.5 10.4 0.00 0.00 0.06 91 1006.8
20230207084729 33 266 3.5 9.6 0.00 0.00 0.06 91 1006.7
20230207084228 33 274 4.3 12.2 0.00 0.00 0.06 91 1006.6
20230207083729 34 245 4.3 12.2 0.00 0.00 0.06 91 1006.5
20230207083229 34 274 1.7 12.2 0.00 0.00 0.06 92 1006.5
20230207082728 34 236 0.9 6.1 0.00 0.00 0.06 92 1006.3
20230207082229 34 290 2.6 8.7 0.00 0.00 0.06 92 1006.2
20230207081729 34 341 3.5 8.7 0.00 0.00 0.06 92 1006.1
20230207081229 34 336 1.7 7.8 0.00 0.00 0.06 92 1006.1
20230207080724 34 280 1.7 6.1 0.00 0.00 0.06 92 1005.9
20230207080218 33 241 2.6 6.1 0.00 0.00 0.06 92 1005.8
20230207075711 33 246 2.6 7.8 0.00 0.00 0.06 92 1005.5
20230207075208 33 328 2.6 7.8 0.00 0.00 0.06 93 1005.3
20230207074707 33 306 2.6 7.8 0.00 0.00 0.06 93 1005.2
20230207074208 33 261 2.6 7.8 0.00 0.00 0.06 93 1005.1
20230207073706 33 252 1.7 6.1 0.00 0.00 0.06 93 1005.0
20230207073207 34 304 1.7 6.1 0.00 0.00 0.06 93 1005.0
20230207072206 33 304 1.7 8.7 0.00 0.00 0.06 93 1004.8
20230207071708 33 279 1.7 8.7 0.00 0.00 0.06 93 1004.6
20230207071211 33 304 2.6 6.1 0.00 0.00 0.06 93 1004.5
20230207070705 33 323 1.7 6.1 0.00 0.00 0.06 93 1004.4
20230207070202 33 254 0.9 6.1 0.00 0.00 0.06 93 1004.3
20230207065702 33 292 0.9 5.2 0.00 0.00 0.06 93 1004.3
20230207065202 33 294 1.7 5.2 0.00 0.00 0.06 93 1004.2
20230207064701 33 317 0.9 6.1 0.00 0.00 0.06 93 1004.2
20230207063702 33 266 2.6 9.6 0.00 0.00 0.06 93 1004.2
20230207063202 33 262 2.6 9.6 0.00 0.00 0.06 93 1004.0
20230207062701 33 246 2.6 6.1 0.00 0.00 0.06 93 1003.9
20230207061701 33 344 2.6 8.7 0.00 0.00 0.06 93 1003.9
20230207061201 33 255 1.7 5.2 0.00 0.00 0.06 93 1003.8
20230207060201 33 260 2.6 7.8 0.00 0.00 0.06 93 1003.6
20230207055701 33 249 1.7 6.1 0.00 0.00 0.06 94 1003.5
20230207055200 34 255 1.7 6.1 0.00 0.00 0.06 94 1003.4
20230207054701 34 215 1.7 7.0 0.00 0.00 0.06 94 1003.5
20230207054202 34 262 1.7 7.0 0.00 0.00 0.06 94 1003.4
20230207053700 34 255 1.7 5.2 0.01 0.00 0.06 94 1003.4
20230207053202 34 293 0.9 3.5 0.01 0.00 0.06 94 1003.4
20230207052700 34 298 1.7 3.5 0.01 0.00 0.06 94 1003.2
20230207052202 34 289 1.7 3.5 0.01 0.00 0.06 93 1003.2
20230207051700 34 288 1.7 3.5 0.01 0.00 0.06 93 1003.1
20230207050700 34 254 1.7 6.1 0.01 0.00 0.06 93 1003.2
20230207050200 34 261 1.7 8.7 0.01 0.00 0.06 93 1003.1
20230207045701 34 327 1.7 8.7 0.01 0.00 0.06 93 1003.1
20230207045201 34 246 0.9 6.1 0.01 0.00 0.06 93 1003.0
20230207044700 34 255 0.9 6.1 0.01 0.00 0.06 93 1003.0
20230207044201 34 288 1.7 6.1 0.01 0.00 0.06 93 1003.1
20230207043700 34 264 1.7 6.1 0.00 0.00 0.05 93 1002.9
20230207043201 34 265 0.9 7.0 0.00 0.00 0.05 93 1002.8
20230207042702 34 259 0.9 7.0 0.00 0.00 0.05 93 1002.8
20230207042201 34 252 0.9 7.8 0.01 0.00 0.05 93 1002.7
20230207040659 34 258 0.9 6.1 0.01 0.00 0.05 93 1002.7
20230207040158 34 236 2.6 6.1 0.01 0.00 0.05 93 1002.8
20230207035659 34 254 2.6 6.1 0.01 0.00 0.05 93 1002.8
20230207035159 34 255 1.7 6.1 0.01 0.00 0.05 93 1002.7
20230207034658 34 248 0.9 6.1 0.01 0.00 0.05 93 1002.8
20230207034158 34 192 0.0 6.1 0.01 0.00 0.05 93 1002.9
20230207033156 34 223 0.0 0.0 0.02 0.00 0.05 93 1002.8
20230207032157 34 222 0.0 3.5 0.01 0.00 0.04 93 1002.8
20230207031651 34 228 0.9 4.3 0.01 0.00 0.04 93 1002.9
20230207031144 34 209 1.7 4.3 0.01 0.00 0.04 93 1002.8
20230207030645 34 209 1.7 4.3 0.01 0.00 0.04 93 1002.8
20230207025642 34 136 0.9 1.7 0.02 0.00 0.04 93 1002.8
20230207025142 34 136 0.9 1.7 0.02 0.00 0.04 93 1002.7
20230207024640 34 136 0.9 2.6 0.02 0.00 0.04 93 1002.7
20230207024139 34 136 0.9 2.6 0.02 0.00 0.04 93 1002.7
20230207023141 34 136 1.7 3.5 0.01 0.00 0.03 93 1002.5
20230207022637 34 137 1.7 3.5 0.01 0.00 0.03 93 1002.5
20230207021635 34 137 0.9 3.5 0.02 0.00 0.03 92 1002.8
20230207021135 34 137 0.9 3.5 0.02 0.00 0.03 92 1002.7
20230207020632 34 136 0.0 3.5 0.02 0.00 0.03 92 1002.8
20230207020130 34 138 1.7 7.8 0.02 0.00 0.03 92 1002.8
20230207015630 34 140 1.7 7.8 0.01 0.00 0.02 92 1002.9
20230207014631 34 144 1.7 7.0 0.01 0.00 0.02 92 1003.1
20230207014129 34 139 1.7 7.0 0.02 0.00 0.02 92 1003.3
20230207013630 34 136 0.9 4.3 0.02 0.00 0.02 92 1003.3
20230207013126 34 132 0.9 3.5 0.02 0.00 0.02 92 1003.4
20230207012621 34 136 0.0 0.0 0.02 0.00 0.02 92 1003.5
20230207012114 34 129 0.0 0.0 0.01 0.00 0.01 92 1003.7
20230207011609 34 129 0.0 0.0 0.01 0.00 0.01 91 1003.6
20230207010602 34 132 0.9 7.0 0.01 0.00 0.01 91 1003.6
20230207010102 34 130 1.7 7.0 0.01 0.00 0.01 91 1003.7
20230207005602 34 133 1.7 3.5 0.02 0.00 0.00 91 1003.8
20230207005102 34 134 0.9 3.5 0.02 0.00 0.00 91 1003.8
20230207004602 34 136 0.0 0.0 0.02 0.00 0.00 91 1003.9
20230207004102 34 134 0.0 0.0 0.01 0.00 0.00 90 1004.0
20230207003601 34 126 0.9 6.1 0.01 0.00 0.00 90 1004.0
20230207003100 34 134 0.9 7.0 0.02 0.00 0.00 90 1004.1
20230207002603 34 134 0.9 7.0 0.02 0.00 0.00 90 1004.0
20230207002102 34 130 0.0 3.5 0.02 0.00 0.00 89 1004.0
20230207001602 34 134 0.0 3.5 0.02 0.00 0.00 89 1004.0
20230207000601 34 134 0.0 0.0 0.02 0.00 0.00 88 1004.0
20230207000100 35 126 0.0 0.0 0.02 0.00 0.00 88 1004.0
20230206235602 35 116 0.0 0.0 0.01 0.00 0.01 88 1004.1
20230206235101 35 135 0.9 6.1 0.01 0.00 0.01 87 1004.3
20230206234602 35 136 1.7 6.1 0.01 0.00 0.01 87 1004.3
20230206234057 35 134 0.0 2.6 0.01 0.00 0.01 86 1004.2
20230206233550 35 131 0.0 0.0 0.01 0.00 0.01 86 1004.3
20230206233045 35 128 0.0 0.0 0.00 0.00 0.00 86 1004.2
20230206232546 35 138 0.0 0.0 0.00 0.00 0.00 85 1004.4
20230206232046 35 132 0.0 0.0 0.00 0.00 0.00 85 1004.4
20230206231042 35 130 0.0 0.0 0.00 0.00 0.00 85 1004.4
20230206230540 35 134 0.0 0.0 0.00 0.00 0.00 85 1004.4
20230206225035 35 134 0.0 0.0 0.00 0.00 0.00 85 1004.4
20230206224533 35 132 0.0 6.1 0.00 0.00 0.00 86 1004.3
20230206223033 34 134 0.0 3.5 0.00 0.00 0.00 87 1004.3
20230206222532 34 141 0.0 0.0 0.00 0.00 0.00 87 1004.5
20230206222030 34 130 0.0 0.0 0.00 0.00 0.00 87 1004.7
20230206221030 34 113 0.9 8.7 0.00 0.00 0.00 87 1004.6
20230206215530 35 137 0.9 9.6 0.00 0.00 0.00 84 1004.3
20230206215026 35 121 0.9 10.4 0.00 0.00 0.00 83 1004.3
20230206214521 35 144 1.7 13.9 0.00 0.00 0.00 82 1004.4
20230206214014 35 115 0.9 13.9 0.00 0.00 0.00 81 1004.3
20230206213508 35 115 0.0 10.4 0.00 0.00 0.00 80 1004.3
20230206213008 35 107 0.0 10.4 0.00 0.00 0.00 80 1004.4
20230206212509 35 111 0.0 0.0 0.00 0.00 0.00 80 1004.4
20230206211508 35 100 0.9 9.6 0.00 0.00 0.00 79 1004.3
20230206211009 35 117 0.9 9.6 0.00 0.00 0.00 79 1004.4
20230206210507 35 110 0.0 0.0 0.00 0.00 0.00 78 1004.6
20230206210008 35 107 0.0 8.7 0.00 0.00 0.00 78 1004.8
20230206205507 35 103 0.9 9.6 0.00 0.00 0.00 77 1004.9
20230206205006 35 121 0.9 9.6 0.00 0.00 0.00 76 1005.1
20230206204509 35 100 1.7 13.9 0.00 0.00 0.00 76 1005.2
20230206204005 35 149 1.7 14.8 0.00 0.00 0.00 76 1005.4
20230206203507 35 114 0.0 14.8 0.00 0.00 0.00 75 1005.8
20230206203007 35 143 0.0 3.5 0.00 0.00 0.00 75 1005.8
20230206202506 35 142 0.0 3.5 0.00 0.00 0.00 75 1006.3
20230206202007 35 119 0.0 0.0 0.00 0.00 0.00 75 1006.6
20230206201506 35 107 0.0 6.1 0.00 0.00 0.00 75 1006.7
20230206201007 35 89 0.0 6.1 0.00 0.00 0.00 75 1006.9
20230206200506 35 134 0.0 3.5 0.00 0.00 0.00 74 1007.2
20230206200006 35 103 0.0 3.5 0.00 0.00 0.00 74 1007.3
20230206195505 35 133 0.0 3.5 0.00 0.00 0.00 74 1007.6
20230206195009 35 109 0.0 7.8 0.00 0.00 0.00 73 1007.7
20230206194506 35 103 0.0 7.8 0.00 0.00 0.00 73 1008.0
20230206194007 35 127 0.0 0.0 0.00 0.00 0.00 73 1008.3
20230206193507 35 126 0.0 0.0 0.00 0.00 0.00 73 1008.3
20230206193006 35 134 0.0 0.0 0.00 0.00 0.00 73 1008.2
20230206192002 36 0.0 0.0 0.00 0.00 0.00 71 1008.6
20230206190701 38 146 1.7 15.6 0.00 0.00 0.00 71 1008.9
20230206190200 37 144 3.5 19.1 0.00 0.00 0.00 71 1009.0
20230206185201 37 148 1.7 20.9 0.00 0.00 0.00 71 1009.0
20230206184701 38 117 0.9 11.3 0.00 0.00 0.00 70 1009.1
20230206184200 38 165 1.7 13.9 0.00 0.00 0.00 71 1009.5
20230206183701 38 107 0.9 13.9 0.00 0.00 0.00 71 1009.5
20230206183200 38 183 2.6 16.5 0.00 0.00 0.00 72 1009.8
20230206182700 37 159 6.1 16.5 0.00 0.00 0.00 72 1010.0
20230206181700 36 126 1.7 16.5 0.00 0.00 0.00 72 1010.3
20230206181201 35 162 0.9 13.9 0.00 0.00 0.00 73 1010.5
20230206180700 35 115 0.9 13.9 0.00 0.00 0.00 73 1010.7
20230206180201 34 122 1.7 17.4 0.00 0.00 0.00 73 1010.8
20230206175701 34 148 3.5 18.2 0.00 0.00 0.00 73 1011.2
20230206175201 34 126 2.6 18.2 0.00 0.00 0.00 73 1011.5
20230206174701 34 155 1.7 15.6 0.00 0.00 0.00 74 1011.7
20230206174202 33 144 1.7 15.6 0.00 0.00 0.00 74 1011.7
20230206173702 33 134 0.9 15.6 0.00 0.00 0.00 75 1011.7
20230206173201 33 131 0.9 14.8 0.00 0.00 0.00 74 1012.0
20230206172702 32 111 1.7 14.8 0.00 0.00 0.00 75 1012.1
20230206172201 32 158 1.7 12.2 0.00 0.00 0.00 76 1012.4
20230206171201 31 169 0.9 12.2 0.00 0.00 0.00 76 1012.5
20230206170701 30 173 0.9 9.6 0.00 0.00 0.00 76 1012.4
20230206170202 30 123 0.9 8.7 0.00 0.00 0.00 77 1012.4
20230206165701 30 145 0.0 6.1 0.00 0.00 0.00 77 1012.5
20230206165202 29 132 0.0 0.0 0.00 0.00 0.00 77 1012.4
20230206164701 29 117 0.0 3.5 0.00 0.00 0.00 77 1012.5
20230206164201 29 123 2.6 12.2 0.00 0.00 0.00 78 1012.7
20230206163201 28 122 4.3 14.8 0.00 0.00 0.00 78 1012.7
20230206162701 28 159 2.6 13.0 0.00 0.00 0.00 78 1012.8
20230206162201 28 128 2.6 14.8 0.00 0.00 0.00 78 1012.8
20230206161701 28 153 1.7 15.6 0.00 0.00 0.00 79 1012.9
20230206161201 27 132 2.6 15.6 0.00 0.00 0.00 79 1012.6
20230206160702 27 122 3.5 15.6 0.00 0.00 0.00 80 1012.7
20230206160200 26 165 6.1 15.6 0.00 0.00 0.00 80 1013.0
20230206155702 26 150 7.0 13.9 0.00 0.00 0.00 80 1013.0
20230206155200 25 155 5.2 13.0 0.00 0.00 0.00 80 1013.3
20230206154702 25 134 3.5 13.0 0.00 0.00 0.00 80 1013.4
20230206154201 25 144 1.7 13.0 0.00 0.00 0.00 80 1013.5
20230206153700 25 128 0.9 9.6 0.00 0.00 0.00 80 1013.7
20230206153201 25 132 2.6 12.2 0.00 0.00 0.00 80 1013.9
20230206152700 25 137 0.9 12.2 0.00 0.00 0.00 80 1014.0
20230206151702 24 98 0.9 7.0 0.00 0.00 0.00 81 1014.3
20230206150700 24 120 6.1 14.8 0.00 0.00 0.00 83 1014.4
20230206145200 22 142 5.2 9.6 0.00 0.00 0.00 84 1014.4
20230206144701 22 139 5.2 10.4 0.00 0.00 0.00 84 1014.6
20230206144201 22 136 4.3 10.4 0.00 0.00 0.00 85 1014.8
20230206143702 22 147 4.3 9.6 0.00 0.00 0.00 85 1015.0
20230206143201 21 136 5.2 9.6 0.00 0.00 0.00 86 1015.0
20230206142703 21 136 4.3 8.7 0.00 0.00 0.00 86 1015.1
20230206141702 20 169 4.3 9.6 0.00 0.00 0.00 86 1015.2
20230206140701 19 147 5.2 9.6 0.00 0.00 0.00 86 1015.2
20230206140200 19 115 5.2 9.6 0.00 0.00 0.00 86 1015.1
20230206135701 19 143 4.3 8.7 0.00 0.00 0.00 86 1015.1
20230206134700 18 134 5.2 7.8 0.00 0.00 0.00 86 1015.4
20230206134201 18 132 4.3 8.7 0.00 0.00 0.00 86 1015.5
20230206133654 18 138 3.5 8.7 0.00 0.00 0.00 86 1015.6
20230206133146 18 142 3.5 8.7 0.00 0.00 0.00 86 1015.6
20230206132646 18 138 4.3 8.7 0.00 0.00 0.00 86 1015.5
20230206132144 18 143 4.3 8.7 0.00 0.00 0.00 86 1015.5
20230206131644 18 132 5.2 9.6 0.00 0.00 0.00 86 1015.6
20230206130645 18 128 5.2 8.7 0.00 0.00 0.00 86 1015.8
20230206130138 18 144 5.2 10.4 0.00 0.00 0.00 86 1015.9
20230206125632 18 129 5.2 10.4 0.00 0.00 0.00 86 1015.9
20230206125130 18 136 5.2 9.6 0.00 0.00 0.00 86 1015.8
20230206124630 18 141 4.3 8.7 0.00 0.00 0.00 86 1015.8
20230206124130 18 138 3.5 8.7 0.00 0.00 0.00 86 1016.0
20230206123129 18 128 2.6 6.1 0.00 0.00 0.00 86 1016.4
20230206122630 18 132 3.5 8.7 0.00 0.00 0.00 86 1016.5
20230206122129 18 132 3.5 8.7 0.00 0.00 0.00 86 1016.3
20230206121629 18 144 3.5 6.1 0.00 0.00 0.00 86 1016.5
20230206121130 18 121 3.5 7.0 0.00 0.00 0.00 86 1016.5
20230206120629 18 137 2.6 7.0 0.00 0.00 0.00 86 1016.5
20230206120129 18 142 3.5 8.7 0.00 0.00 0.00 86 1016.7
20230206115130 18 131 4.3 7.8 0.00 0.00 0.00 86 1016.5
20230206114629 18 155 3.5 7.8 0.00 0.00 0.00 87 1016.4
20230206114129 18 140 1.7 6.1 0.00 0.00 0.00 87 1016.7
20230206113629 18 140 2.6 7.8 0.00 0.00 0.00 87 1016.8
20230206112630 18 203 2.6 7.8 0.00 0.00 0.00 87 1016.9
20230206111629 18 160 4.3 9.6 0.00 0.00 0.00 87 1016.9
20230206111129 18 122 4.3 7.8 0.00 0.00 0.00 87 1016.8